Location: ??
(34.9170°N, 135.5016°E)
Time: 12:10:56
(UTC+00:00)

SAR-Lupe-4 - Pass Details

Date: 29 October 2020
Orbit: 481 x 484 km, 98.2° (Epoch: 22 November)

Event Time Altitude Azimuth Distance (km) Brightness Sun altitude
Rises 19:47:11 0° 157° (SSE) 2,532 7.6 -18.9°
Reaches altitude 10° 19:49:16 10° 152° (SSE) 1,656 6.7 -18.5°
Maximum altitude 19:52:44 54° 75° (ENE) 594 4.3 -17.8°
Drops below altitude 10° 19:56:14 10° 358° (N) 1,666 6.2 -17.1°
Sets 19:58:19 0° 353° (N) 2,550 7.1 -16.6°
